| time (UTC) | temp C | wind direction | speed KPH | gust KPH | rain 1hr cm | rain 24hr cm | rain mn cm | humidity % | barometer mb |
| 20260505124510 | 13 | 224 | 1.6 | 4.8 | 0.03 | 1.17 | 1.12 | 96 | 1007.0 |
| 20260505123004 | 13 | 226 | 0.0 | 3.2 | 0.03 | 1.17 | 1.12 | 96 | 1006.5 |
| 20260505121630 | 13 | 227 | 1.6 | 4.8 | 0.03 | 1.17 | 1.12 | 96 | 1006.6 |
| 20260505120100 | 13 | 252 | 0.0 | 4.8 | 0.05 | 1.17 | 1.12 | 95 | 1006.9 |
| 20260505114556 | 13 | 252 | 0.0 | 4.8 | 0.05 | 1.14 | 1.09 | 95 | 1006.9 |
| 20260505113054 | 13 | 254 | 1.6 | 4.8 | 0.05 | 1.14 | 1.09 | 95 | 1007.7 |
| 20260505111553 | 13 | 288 | 0.0 | 4.8 | 0.05 | 1.14 | 1.09 | 95 | 1007.4 |
| 20260505101555 | 12 | 340 | 0.0 | 4.8 | 0.30 | 1.09 | 1.04 | 94 | 1006.0 |
| 20260505100053 | 12 | 340 | 0.0 | 1.6 | 0.48 | 1.09 | 1.04 | 94 | 1007.0 |
| 20260505094548 | 13 | 340 | 0.0 | 1.6 | 0.64 | 1.07 | 1.02 | 93 | 1007.5 |
| 20260505093046 | 13 | 340 | 0.0 | 1.6 | 0.69 | 0.97 | 0.91 | 93 | 1007.8 |
| 20260505091545 | 13 | 340 | 0.0 | 12.9 | 0.53 | 0.76 | 0.71 | 92 | 1008.3 |
| 20260505090055 | 13 | 348 | 4.8 | 14.5 | 0.48 | 0.58 | 0.53 | 91 | 1008.4 |
| 20260505084547 | 14 | 302 | 3.2 | 14.5 | 0.33 | 0.43 | 0.38 | 91 | 1008.4 |
| 20260505083037 | 14 | 304 | 3.2 | 14.5 | 0.20 | 0.28 | 0.23 | 89 | 1007.9 |
| 20260505081535 | 15 | 306 | 1.6 | 6.4 | 0.18 | 0.23 | 0.18 | 86 | 1007.2 |
| 20260505080027 | 15 | 323 | 4.8 | 9.7 | 0.05 | 0.10 | 0.05 | 82 | 1006.8 |
| 20260505074522 | 16 | 228 | 0.0 | 4.8 | 0.05 | 0.10 | 0.05 | 76 | 1005.1 |
| 20260505073017 | 17 | 228 | 0.0 | 6.4 | 0.03 | 0.08 | 0.03 | 71 | 1005.4 |
| 20260505071514 | 17 | 238 | 1.6 | 6.4 | 0.00 | 0.05 | 0.00 | 66 | 1006.2 |
| 20260505070012 | 17 | 214 | 1.6 | 6.4 | 0.00 | 0.05 | 0.00 | 65 | 1005.8 |
| 20260505064510 | 17 | 214 | 1.6 | 4.8 | 0.00 | 0.05 | 0.00 | 64 | 1005.7 |
| 20260505063006 | 18 | 236 | 4.8 | 12.9 | 0.00 | 0.05 | 0.00 | 63 | 1005.5 |
| 20260505061503 | 18 | 201 | 6.4 | 11.3 | 0.00 | 0.05 | 0.00 | 62 | 1005.2 |
| 20260505054559 | 18 | 205 | 8.0 | 20.9 | 0.00 | 0.05 | 0.00 | 59 | 1005.0 |
| 20260505053106 | 18 | 210 | 8.0 | 17.7 | 0.00 | 0.05 | 0.00 | 59 | 1004.8 |
| 20260505051553 | 18 | 205 | 6.4 | 19.3 | 0.00 | 0.05 | 0.00 | 59 | 1004.5 |
| 20260505041544 | 19 | 213 | 6.4 | 16.1 | 0.00 | 0.05 | 0.00 | 59 | 1004.2 |
| 20260505040041 | 19 | 212 | 6.4 | 16.1 | 0.00 | 0.05 | 0.00 | 59 | 1004.5 |
| 20260505034541 | 20 | 226 | 6.4 | 16.1 | 0.00 | 0.05 | 0.05 | 59 | 1004.9 |
| 20260505033102 | 19 | 200 | 8.0 | 19.3 | 0.00 | 0.05 | 0.05 | 59 | 1005.1 |
| 20260505031540 | 20 | 205 | 8.0 | 16.1 | 0.00 | 0.05 | 0.05 | 58 | 1005.3 |
| 20260505030038 | 20 | 186 | 8.0 | 16.1 | 0.00 | 0.05 | 0.05 | 58 | 1005.2 |
| 20260505024537 | 20 | 213 | 4.8 | 14.5 | 0.00 | 0.05 | 0.05 | 59 | 1005.1 |
| 20260505023046 | 19 | 224 | 4.8 | 12.9 | 0.00 | 0.05 | 0.05 | 60 | 1004.9 |
| 20260505021536 | 19 | 200 | 6.4 | 11.3 | 0.00 | 0.05 | 0.05 | 62 | 1004.7 |
| 20260505020034 | 18 | 211 | 1.6 | 9.7 | 0.00 | 0.05 | 0.05 | 64 | 1004.5 |
| 20260505014534 | 18 | 205 | 1.6 | 8.0 | 0.00 | 0.05 | 0.05 | 64 | 1004.2 |
| 20260505013032 | 18 | 192 | 0.0 | 4.8 | 0.00 | 0.05 | 0.05 | 63 | 1003.8 |
| 20260505011532 | 19 | 203 | 1.6 | 6.4 | 0.00 | 0.05 | 0.05 | 60 | 1003.9 |
| 20260505010032 | 20 | 205 | 0.0 | 6.4 | 0.00 | 0.05 | 0.05 | 57 | 1003.7 |
| 20260505004540 | 21 | 200 | 4.8 | 12.9 | 0.00 | 0.05 | 0.05 | 55 | 1003.8 |
| 20260505003028 | 21 | 215 | 3.2 | 17.7 | 0.00 | 0.05 | 0.05 | 53 | 1003.8 |
| 20260505001527 | 21 | 218 | 6.4 | 22.5 | 0.00 | 0.05 | 0.05 | 52 | 1003.8 |
| 20260505000026 | 22 | 209 | 8.0 | 20.9 | 0.00 | 0.05 | 0.05 | 51 | 1003.9 |
| 20260504234529 | 22 | 210 | 4.8 | 19.3 | 0.00 | 0.05 | 0.05 | 54 | 1004.1 |
| 20260504233020 | 22 | 219 | 6.4 | 16.1 | 0.00 | 0.05 | 0.05 | 53 | 1004.4 |
| 20260504231532 | 22 | 196 | 6.4 | 19.3 | 0.00 | 0.05 | 0.05 | 53 | 1004.5 |
| 20260504230016 | 22 | 223 | 4.8 | 19.3 | 0.00 | 0.05 | 0.05 | 53 | 1004.8 |
| 20260504224513 | 23 | 213 | 9.7 | 20.9 | 0.00 | 0.05 | 0.05 | 51 | 1005.0 |
| 20260504223013 | 22 | 227 | 9.7 | 19.3 | 0.00 | 0.05 | 0.05 | 49 | 1005.1 |
| 20260504221511 | 23 | 196 | 11.3 | 25.7 | 0.00 | 0.05 | 0.05 | 48 | 1005.2 |
| 20260504220011 | 23 | 206 | 12.9 | 29.0 | 0.00 | 0.05 | 0.05 | 47 | 1005.4 |
| 20260504214515 | 23 | 196 | 14.5 | 30.6 | 0.00 | 0.05 | 0.05 | 46 | 1005.3 |
| 20260504213007 | 23 | 178 | 1.6 | 6.4 | 0.00 | 0.05 | 0.05 | 55 | 1005.2 |
| 20260504211504 | 22 | 169 | 1.6 | 6.4 | 0.00 | 0.05 | 0.05 | 55 | 1005.3 |
| 20260504210002 | 22 | 199 | 1.6 | 6.4 | 0.00 | 0.05 | 0.05 | 54 | 1005.7 |
| 20260504204637 | 22 | 202 | 4.8 | 9.7 | 0.00 | 0.05 | 0.05 | 53 | 1006.3 |
| 20260504203054 | 23 | 227 | 8.0 | 16.1 | 0.00 | 0.05 | 0.05 | 55 | 1006.6 |
| 20260504201551 | 22 | 254 | 8.0 | 22.5 | 0.00 | 0.05 | 0.05 | 55 | 1006.8 |
| 20260504200054 | 22 | 225 | 8.0 | 19.3 | 0.00 | 0.05 | 0.05 | 57 | 1006.8 |
| 20260504194550 | 21 | 214 | 6.4 | 12.9 | 0.03 | 0.05 | 0.05 | 66 | 1007.1 |
| 20260504193042 | 19 | 220 | 4.8 | 16.1 | 0.03 | 0.05 | 0.05 | 72 | 1007.2 |
| 20260504191543 | 18 | 216 | 3.2 | 9.7 | 0.05 | 0.05 | 0.05 | 76 | 1007.4 |
| 20260504190045 | 17 | 206 | 3.2 | 9.7 | 0.05 | 0.05 | 0.05 | 79 | 1007.6 |
| 20260504184541 | 17 | 217 | 3.2 | 8.0 | 0.03 | 0.03 | 0.03 | 78 | 1007.8 |
| 20260504183037 | 17 | 211 | 4.8 | 19.3 | 0.03 | 0.03 | 0.03 | 76 | 1007.1 |
| 20260504181538 | 17 | 204 | 4.8 | 16.1 | 0.00 | 0.00 | 0.00 | 73 | 1008.3 |
| 20260504180035 | 18 | 263 | 6.4 | 16.1 | 0.00 | 0.00 | 0.00 | 69 | 1008.2 |
| 20260504174538 | 18 | 183 | 8.0 | 30.6 | 0.00 | 0.00 | 0.00 | 66 | 1008.0 |
| 20260504173034 | 19 | 207 | 11.3 | 25.7 | 0.00 | 0.00 | 0.00 | 67 | 1007.8 |
| 20260504171541 | 19 | 227 | 12.9 | 22.5 | 0.00 | 0.00 | 0.00 | 65 | 1007.7 |